Amateur Radio Satellites - All Passes

Search period start: 23 May 2013 23:29
Search period end: 24 May 2013 23:29
Location: Bothell, 47.7630°N, 122.2040°W

Satellite Date Start Highest point End Downlink Frequencies (MHz)
Time Altitude Azimuth
AO-40 23 May 23:49:52 04:42:45 31° 160° (SSE) 07:28:20 Beacon 2401.320
OPAL 24 May 00:22:41 00:23:58 11° 272° (W) 00:25:15 ?
RS-15 24 May 01:01:45 01:13:03 76° 48° (NE) 01:23:57 29.354 - 29.394 USB, Beacon 29.352 USB
KITSAT 1 24 May 01:03:57 01:11:43 48° 318° (NW) 01:19:33 435.175 FM
MaSat-1 24 May 01:29:44 01:35:56 37° 111° (ESE) 01:41:07 437.345 MHz
Uribyol 2 24 May 02:10:35 02:14:30 21° 91° (E) 02:18:24 436.500 FM
Oscar 19 24 May 02:10:54 02:15:03 24° 92° (E) 02:19:09 437.125 CW, 437.150 USB
ISS 24 May 02:38:07 02:40:48 23° 140° (SE) 02:43:30 145.800 FM
Oscar 16 24 May 02:49:56 02:55:04 59° 101° (E) 03:00:09 437.025 USB, Beacon 2401.1428
AO-27 24 May 03:02:10 03:07:19 56° 101° (E) 03:12:27 436.795 MHz FM
KITSAT 1 24 May 03:03:08 03:09:20 23° 346° (NNW) 03:15:35 435.175 FM
ITAMSAT 1 24 May 03:08:26 03:13:39 62° 102° (ESE) 03:18:49 435.822 SSB
MaSat-1 24 May 03:11:35 03:18:03 49° 305° (NW) 03:23:14 437.345 MHz
RS-15 24 May 03:14:54 03:24:27 36° 253° (WSW) 03:33:50 29.354 - 29.394 USB, Beacon 29.352 USB
Gurwin Techsat 1B 24 May 03:35:38 03:38:58 17° 88° (E) 03:42:16 435.225 FM
Uosat F 24 May 03:36:57 03:40:28 19° 91° (E) 03:43:59 435.120 FM
AO-Echo 24 May 03:42:04 03:46:39 45° 99° (E) 03:51:17 ?
Uribyol 2 24 May 03:49:15 03:54:25 60° 290° (WNW) 03:59:33 436.500 FM
Oscar 19 24 May 03:49:41 03:54:43 52° 291° (WNW) 03:59:41 437.125 CW, 437.150 USB
ISS 24 May 04:13:55 04:17:15 77° 339° (NNW) 04:20:36 145.800 FM
Oscar 10/S400 24 May 04:28:40 09:08:54 63° 202° (SSW) 14:45:48 145.825 - 145.975 CW/USB, Beacon 145.810 USB
Oscar 16 24 May 04:30:04 04:34:03 23° 300° (WNW) 04:38:01 437.025 USB, Beacon 2401.1428
AO-27 24 May 04:42:22 04:46:31 24° 299° (WNW) 04:50:40 436.795 MHz FM
ITAMSAT 1 24 May 04:48:46 04:52:45 23° 300° (WNW) 04:56:43 435.822 SSB
TMSAT-1 24 May 04:51:30 04:56:41 49° 99° (E) 05:01:49 436.925 FM
AO-7 24 May 04:56:52 05:03:23 24° 91° (E) 05:09:51 29.400 - 29.500 MHz
MaSat-1 24 May 04:58:30 05:01:09 13° 324° (NW) 05:03:34 437.345 MHz
KITSAT 1 24 May 05:01:39 05:07:57 24° 16° (NNE) 05:14:15 435.175 FM
Gurwin Techsat 1B 24 May 05:14:13 05:19:34 77° 287° (WNW) 05:24:52 435.225 FM
Uosat F 24 May 05:14:45 05:19:44 63° 289° (WNW) 05:24:42 435.120 FM
AO-Echo 24 May 05:21:24 05:25:15 25° 297° (WNW) 05:29:08 ?
Uribyol 2 24 May 05:31:31 05:32:52 11° 309° (NW) 05:34:14 436.500 FM
ISS 24 May 05:51:04 05:54:15 40° 358° (N) 05:57:27 145.800 FM
STRAND 1 24 May 05:55:09 05:59:55 42° 67° (ENE) 06:04:43 ?
Saudisat 1A 24 May 06:02:27 06:06:57 60° 123° (ESE) 06:11:30 436.775 MHz
Sapphire 24 May 06:19:38 06:22:00 13° 103° (ESE) 06:24:22 437.095 MHz 1200 baud AX-25 AFSK
TMSAT-1 24 May 06:31:57 06:36:22 27° 298° (WNW) 06:40:47 436.925 FM
AO-7 24 May 06:48:43 06:57:08 84° 291° (WNW) 07:05:31 29.400 - 29.500 MHz
Gurwin Techsat 1B 24 May 06:56:03 06:58:41 14° 306° (NW) 07:01:20 435.225 FM
Uosat F 24 May 06:56:18 06:57:35 11° 308° (NW) 06:58:52 435.120 FM
KITSAT 1 24 May 06:57:35 07:05:29 51° 43° (NE) 07:13:21 435.175 FM
Hamsat 24 May 07:23:42 07:27:06 22° 92° (E) 07:30:30 145.90 MHz
JAS-1B 24 May 07:24:53 07:26:55 12° 82° (E) 07:28:54 435.800 - 435.900 CW/SSB
PCSat 24 May 07:26:23 07:31:32 47° 116° (ESE) 07:36:44 145.825 MHz
ISS 24 May 07:27:58 07:31:18 64° 19° (NNE) 07:34:39 145.800 FM
STRAND 1 24 May 07:34:52 07:39:16 29° 265° (W) 07:43:42 ?
Saudisat 1A 24 May 07:43:04 07:47:00 27° 324° (NW) 07:50:57 436.775 MHz
SO-50 24 May 07:52:44 07:55:43 17° 111° (ESE) 07:58:42 436.795 FM
Sapphire 24 May 07:59:08 08:04:32 79° 121° (ESE) 08:09:59 437.095 MHz 1200 baud AX-25 AFSK
SO-67 24 May 08:38:09 08:41:36 42° 98° (E) 08:45:01 435.3500 MHz FM
AO-7 24 May 08:42:30 08:48:52 25° 313° (NW) 08:55:14 29.400 - 29.500 MHz
KITSAT 1 24 May 08:53:13 09:00:58 51° 246° (WSW) 09:08:42 435.175 FM
HO-68 24 May 08:58:52 09:01:49 13° 84° (E) 09:04:46 435.675 MHz FM
Hamsat 24 May 08:59:14 09:03:22 43° 290° (WNW) 09:07:30 145.90 MHz
ISS 24 May 09:04:52 09:07:52 30° 217° (SW) 09:10:51 145.800 FM
PCSat 24 May 09:10:10 09:15:08 36° 316° (NW) 09:20:08 145.825 MHz
JAS-1B 24 May 09:12:45 09:18:56 82° 105° (ESE) 09:24:36 435.800 - 435.900 CW/SSB
Saudisat 1A 24 May 09:26:54 09:28:15 11° 347° (NNW) 09:29:36 436.775 MHz
SO-50 24 May 09:31:01 09:35:49 79° 309° (NW) 09:40:33 436.795 FM
Sapphire 24 May 09:44:10 09:48:35 25° 323° (NW) 09:53:02 437.095 MHz 1200 baud AX-25 AFSK
JAS-2 24 May 10:00:04 10:05:52 28° 89° (E) 10:11:05 435.800 - 435.900 CW/SSB, 435.910 FM
MaSat-1 24 May 10:11:45 10:14:33 20° 43° (NE) 10:16:56 437.345 MHz
SO-67 24 May 10:12:29 10:14:46 16° 296° (WNW) 10:17:02 435.3500 MHz FM
HO-68 24 May 10:43:44 10:50:53 67° 104° (ESE) 10:58:01 435.675 MHz FM
UOSAT-12 24 May 10:43:54 10:46:49 17° 111° (ESE) 10:49:44 437.025 FM, 437.400 FM
OPAL 24 May 10:46:32 10:50:16 21° 94° (E) 10:53:58 ?
PCSat 24 May 10:57:52 11:00:15 13° 340° (NNW) 11:02:38 145.825 MHz
Oscar 11 24 May 11:01:27 11:05:49 66° 102° (ESE) 11:10:10 145.825 FM, Beacon 2401.500 USB
JAS-1B 24 May 11:04:40 11:08:46 19° 308° (NW) 11:12:38 435.800 - 435.900 CW/SSB
Saudisat 1A 24 May 11:08:54 11:10:04 11° 12° (NNE) 11:11:14 436.775 MHz
SO-50 24 May 11:13:42 11:17:11 20° 330° (NNW) 11:20:37 436.795 FM
Sapphire 24 May 11:32:59 11:34:06 11° 348° (NNW) 11:35:13 437.095 MHz 1200 baud AX-25 AFSK
JAS-2 24 May 11:44:34 11:51:29 60° 292° (WNW) 11:57:32 435.800 - 435.900 CW/SSB, 435.910 FM
MaSat-1 24 May 11:53:45 11:56:39 27° 252° (WSW) 11:59:05 437.345 MHz
UOSAT-12 24 May 12:21:57 12:26:28 72° 310° (NW) 12:31:02 437.025 FM, 437.400 FM
OPAL 24 May 12:24:38 12:29:33 57° 292° (WNW) 12:34:24 ?
HO-68 24 May 12:32:04 12:38:07 31° 304° (NW) 12:44:10 435.675 MHz FM
Oscar 16 24 May 12:33:06 12:36:46 20° 58° (ENE) 12:40:26 437.025 USB, Beacon 2401.1428
Oscar 11 24 May 12:38:53 12:41:34 16° 300° (WNW) 12:44:15 145.825 FM, Beacon 2401.500 USB
AO-27 24 May 12:46:30 12:50:07 20° 58° (ENE) 12:53:45 436.795 MHz FM
Saudisat 1A 24 May 12:47:30 12:51:22 26° 36° (NE) 12:55:10 436.775 MHz
ITAMSAT 1 24 May 12:52:26 12:56:15 21° 59° (ENE) 13:00:04 435.822 SSB
Sapphire 24 May 13:18:30 13:20:14 11° 15° (NNE) 13:21:58 437.095 MHz 1200 baud AX-25 AFSK
AO-Echo 24 May 13:23:14 13:25:20 13° 56° (NE) 13:27:25 ?
Oscar 19 24 May 13:30:55 13:35:53 48° 68° (ENE) 13:40:53 437.125 CW, 437.150 USB
JAS-2 24 May 13:31:26 13:34:58 15° 315° (NW) 13:38:20 435.800 - 435.900 CW/SSB, 435.910 FM
Uribyol 2 24 May 13:31:38 13:36:31 44° 67° (ENE) 13:41:26 436.500 FM
UOSAT-12 24 May 14:04:18 14:07:26 18° 332° (NNW) 14:10:36 437.025 FM, 437.400 FM
OPAL 24 May 14:06:35 14:07:25 10° 312° (NW) 14:08:16 ?
Oscar 16 24 May 14:10:25 14:15:36 71° 257° (WSW) 14:20:50 437.025 USB, Beacon 2401.1428
AO-7 24 May 14:12:19 14:16:17 14° 35° (NE) 14:20:15 29.400 - 29.500 MHz
AO-27 24 May 14:23:57 14:29:07 72° 257° (WSW) 14:34:20 436.795 MHz FM
Saudisat 1A 24 May 14:26:55 14:31:28 64° 236° (SW) 14:35:53 436.775 MHz
PCSat 24 May 14:27:58 14:32:02 21° 33° (NNE) 14:36:05 145.825 MHz
ITAMSAT 1 24 May 14:30:09 14:35:18 65° 258° (WSW) 14:40:29 435.822 SSB
TMSAT-1 24 May 14:38:20 14:41:49 18° 57° (ENE) 14:45:18 436.925 FM
SO-50 24 May 14:40:03 14:42:22 14° 20° (NNE) 14:44:39 436.795 FM
Uosat F 24 May 14:53:21 14:57:55 37° 66° (ENE) 15:02:30 435.120 FM
AO-Echo 24 May 14:58:37 15:03:26 84° 75° (ENE) 15:08:11 ?
Gurwin Techsat 1B 24 May 14:59:40 15:04:28 36° 65° (ENE) 15:09:17 435.225 FM
Sapphire 24 May 15:00:51 15:05:35 29° 40° (NE) 15:10:16 437.095 MHz 1200 baud AX-25 AFSK
Oscar 19 24 May 15:11:09 15:15:29 26° 267° (W) 15:19:50 437.125 CW, 437.150 USB
Uribyol 2 24 May 15:11:43 15:16:10 29° 266° (W) 15:20:40 436.500 FM
RS-15 24 May 15:30:04 15:40:06 33° 105° (ESE) 15:49:46 29.354 - 29.394 USB, Beacon 29.352 USB
AO-7 24 May 15:59:18 16:07:03 46° 58° (ENE) 16:14:52 29.400 - 29.500 MHz
PCSat 24 May 16:10:52 16:16:21 80° 55° (NE) 16:21:47 145.825 MHz
TMSAT-1 24 May 16:15:50 16:21:08 81° 256° (WSW) 16:26:29 436.925 FM
SO-50 24 May 16:19:52 16:24:14 41° 43° (NE) 16:28:30 436.795 FM
Uosat F 24 May 16:32:20 16:36:47 32° 264° (W) 16:41:16 435.120 FM
Gurwin Techsat 1B 24 May 16:39:34 16:44:26 36° 264° (W) 16:49:20 435.225 FM
AO-Echo 24 May 16:40:49 16:42:52 13° 272° (W) 16:44:55 ?
Sapphire 24 May 16:44:03 16:49:26 64° 241° (WSW) 16:54:47 437.095 MHz 1200 baud AX-25 AFSK
UOSAT-12 24 May 17:29:19 17:31:43 14° 21° (NNE) 17:34:07 437.025 FM, 437.400 FM
RS-15 24 May 17:39:22 17:51:25 84° 309° (NW) 18:02:56 29.354 - 29.394 USB, Beacon 29.352 USB
AO-7 24 May 17:51:51 17:59:49 50° 259° (W) 18:07:53 29.400 - 29.500 MHz
PCSat 24 May 17:55:33 17:59:08 18° 254° (WSW) 18:02:42 145.825 MHz
TMSAT-1 24 May 18:00:01 18:01:56 12° 275° (W) 18:03:51 436.925 FM
SO-50 24 May 18:00:43 18:04:46 32° 243° (WSW) 18:08:44 436.795 FM
STRAND 1 24 May 18:05:28 18:06:09 10° 85° (E) 18:06:50 ?
JAS-1B 24 May 18:11:05 18:17:39 26° 56° (ENE) 18:23:27 435.800 - 435.900 CW/SSB
Hamsat 24 May 18:21:22 18:24:47 24° 65° (ENE) 18:28:14 145.90 MHz
UOSAT-12 24 May 19:08:40 19:13:04 43° 44° (NE) 19:17:28 437.025 FM, 437.400 FM
SO-67 24 May 19:17:32 19:20:36 27° 69° (ENE) 19:23:41 435.3500 MHz FM
HO-68 24 May 19:31:30 19:36:00 18° 47° (NE) 19:40:30 435.675 MHz FM
STRAND 1 24 May 19:41:05 19:46:15 74° 103° (ESE) 19:51:24 ?
RS-15 24 May 19:54:48 20:05:38 40° 337° (NNW) 20:16:02 29.354 - 29.394 USB, Beacon 29.352 USB
Hamsat 24 May 19:56:46 20:00:42 37° 263° (W) 20:04:41 145.90 MHz
JAS-1B 24 May 19:58:35 20:07:37 87° 254° (WSW) 20:15:11 435.800 - 435.900 CW/SSB
JAS-2 24 May 20:15:03 20:21:05 25° 54° (NE) 20:27:00 435.800 - 435.900 CW/SSB, 435.910 FM
Oscar 11 24 May 20:27:37 20:28:47 11° 56° (NE) 20:29:58 145.825 FM, Beacon 2401.500 USB
OPAL 24 May 20:30:20 20:31:24 11° 48° (NE) 20:32:28 ?
UOSAT-12 24 May 20:49:05 20:53:08 31° 243° (WSW) 20:57:11 437.025 FM, 437.400 FM
SO-67 24 May 20:51:11 20:54:04 23° 266° (W) 20:56:58 435.3500 MHz FM
HO-68 24 May 21:15:27 21:22:32 70° 68° (ENE) 21:29:38 435.675 MHz FM
STRAND 1 24 May 21:21:24 21:24:55 19° 302° (WNW) 21:28:26 ?
KITSAT 1 24 May 21:33:18 21:38:05 17° 100° (E) 21:42:52 435.175 FM
JAS-1B 24 May 21:52:36 21:58:53 21° 271° (W) 22:04:35 435.800 - 435.900 CW/SSB
JAS-2 24 May 21:57:20 22:05:11 89° 74° (ENE) 22:13:00 435.800 - 435.900 CW/SSB, 435.910 FM
Oscar 11 24 May 21:59:57 22:04:17 81° 75° (ENE) 22:08:38 145.825 FM, Beacon 2401.500 USB
OPAL 24 May 22:04:13 22:09:16 56° 67° (ENE) 22:14:18 ?
RS-15 24 May 22:11:38 22:21:50 35° 11° (NNE) 22:31:40 29.354 - 29.394 USB, Beacon 29.352 USB
HO-68 24 May 23:05:03 23:10:50 26° 268° (W) 23:16:39 435.675 MHz FM

Developed and maintained by Chris Peat, Heavens-Above GmbH. Please read the updated FAQ before sending e-mail. Imprint. DLR
